Home   Weather   Flint   Past weeks

Flag for USA Past Weather in Flint, Michigan, USA — Yesterday and Last 2 Weeks

Now
25 °F

Overcast.


Feels Like: 15 °F
Forecast: 20 / 27 °F
Wind: 10 mph from West

Location: Bishop International Airport

Current Time: Dec 9, 2016 at 8:32:26 pm

Latest Report: Dec 9, 2016 at 7:53 pm


Visibility: 10 mi

Pressure: 30.42 "Hg

Humidity: 75%

Dew Point: 18 °F

Location of FlintLocation

Past Weather in Flint — Graph

°F

Flint Temperature Yesterday

Maximum temperature yesterday: 31 °F (at 12:53 am)
Minimum temperature yesterday: 26 °F (at 7:53 am)
Average temperature yesterday: 27 °F

High & Low Weather Summary for the Past Weeks

 TemperatureHumidityPressure
High57 °F (Nov 29, 2:53 pm)100% (Nov 24, 9:53 pm)30.42 "Hg (Nov 24, 9:53 pm)
Low25 °F (Dec 6, 12:53 am)44% (Nov 29, 3:53 pm)29.35 "Hg (Nov 29, 12:53 am)
Average37 °F81%29.99 "Hg
* Reported Nov 24 6:53 pm — Dec 9 6:53 pm, Flint, Weather by CustomWeather, © 2016

Note: Actual official high and low records may vary slightly from our data, if they occured in-between our weather recording intervals... More about our weather records

Advertising

Flint Weather History for the Previous 24 Hours

Scroll right to see more
 ConditionsComfort  
Time TempWeatherWind HumidityBarometerVisibility
6:53 pm
Fri, Dec 9
26 °FOvercast.14 mph69%30.42 "Hg10 mi
5:53 pm27 °FOvercast.15 mph61%30.42 "Hg10 mi
4:53 pm27 °FOvercast.15 mph53%30.40 "Hg10 mi
3:53 pm29 °FOvercast.17 mph49%30.39 "Hg10 mi
2:53 pm29 °FOvercast.14 mph51%30.37 "Hg10 mi
1:53 pm30 °FMostly cloudy.18 mph49%30.37 "Hg10 mi
12:53 pm30 °FOvercast.17 mph51%30.38 "Hg10 mi
11:53 am31 °FScattered clouds.14 mph57%30.39 "Hg10 mi
10:53 am30 °FPassing clouds.16 mph61%30.40 "Hg10 mi
9:53 am29 °FSunny.13 mph66%30.39 "Hg10 mi
8:53 am25 °FSunny.10 mph78%30.37 "Hg10 mi
7:53 am25 °FClear.10 mph78%30.35 "Hg10 mi
6:53 am26 °FOvercast.10 mph81%30.34 "Hg10 mi
5:53 am26 °FOvercast.8 mph88%30.32 "Hg10 mi
4:53 am26 °FOvercast.9 mph88%30.31 "Hg10 mi
3:53 am27 °FOvercast.8 mph89%30.30 "Hg10 mi
2:53 am28 °FOvercast.10 mph85%30.29 "Hg10 mi
1:53 am27 °FOvercast.12 mph89%30.27 "Hg10 mi
12:53 am27 °FPassing clouds.9 mph89%30.26 "Hg10 mi
11:53 pm
Thu, Dec 8
26 °FClear.10 mph88%30.25 "Hg10 mi
10:53 pm27 °FPassing clouds.10 mph85%30.23 "Hg10 mi
10:01 pm28 °FMostly cloudy.13 mph85%30.19 "Hg10 mi
8:53 pm28 °FLight snow. Overcast.15 mph81%30.21 "Hg8 mi
Weather by CustomWeather, © 2016

See weather overviewHow to use our weather pages